Wind_Speed
25 28 28 28 29 30 28 26 24 22 21 20 18 17 16 15 14 12 11 9 10 12 10 10 13 16 17 19 20 22 21 21 21 21 21 21 21 23 23 21 19 17 17
26 26 29 30 30 30 30 30 29 28 26 24 23 22 21 20 17 15 14 12 12 12 13 12 12 15 17 19 20 21 21 20 20 19 20 20 20 19 19 19 19 18 17
30 30 27 30 32 32 29 29 31 31 30 28 26 24 23 22 20 18 17 16 15 15 15 15 14 14 17 18 20 21 22 22 22 20 18 17 18 18 18 18 18 17 17
34 32 33 28 28 28 26 27 27 27 26 26 26 24 24 24 23 21 20 21 19 18 18 17 18 16 16 17 18 19 21 23 23 22 21 19 18 16 17 18 18 20 18
38 34 34 34 28 28 27 26 24 26 26 23 25 27 27 27 26 25 25 24 24 22 21 20 21 21 21 21 20 20 22 22 22 23 23 22 21 21 19 17 16 17 23
45 41 34 35 33 29 28 27 24 24 24 24 23 22 25 26 27 29 30 29 27 25 25 24 23 23 23 23 22 23 22 21 20 21 23 24 23 22 21 23 22 20 18
51 44 39 34 38 34 29 29 27 26 23 25 26 25 24 24 23 26 29 30 29 28 25 25 25 25 26 26 25 25 25 24 23 23 24 25 25 25 24 25 27 29 28
51 52 48 43 39 41 36 32 28 26 26 23 22 24 24 25 23 22 24 27 28 28 28 27 26 26 26 27 26 26 26 26 26 26 26 27 26 25 26 27 28 29 29
57 54 52 52 45 43 38 37 31 27 27 27 23 22 22 20 20 22 22 26 26 25 24 25 24 23 23 24 24 21 20 20 24 25 25 26 27 27 27 29 28 29 29
63 51 51 56 54 48 42 40 35 33 30 28 27 26 26 24 22 22 22 24 26 23 20 23 25 24 25 26 25 25 26 25 26 26 26 27 27 26 26 27 28 30 31
52 59 49 52 55 53 46 44 39 36 34 32 31 27 28 27 26 24 24 25 24 24 25 25 27 27 27 27 28 29 30 30 32 30 28 26 28 29 29 30 30 32 32
59 52 51 53 53 52 51 49 44 41 39 36 35 33 31 31 29 27 27 28 26 25 26 25 27 28 29 29 30 31 32 32 33 32 32 30 30 34 31 33 34 35 34
72 66 64 56 58 49 52 49 52 45 44 41 39 37 35 33 33 31 30 29 29 29 26 25 27 28 30 31 31 31 32 31 30 30 28 28 30 32 32 35 37 38 36
77 75 61 73 67 59 59 55 55 52 51 45 43 41 37 35 37 37 33 32 31 32 31 27 27 30 31 31 31 31 31 29 30 30 29 29 27 28 27 28 28 30 32
83 71 67 69 77 66 70 64 62 58 57 49 46 43 40 40 40 39 37 36 35 34 32 32 33 33 33 32 34 32 31 32 32 29 27 28 26 26 26 21 23 23 28
87 75 56 52 57 63 61 64 62 57 54 49 48 46 44 44 43 41 40 40 38 37 35 36 38 36 37 38 37 36 33 33 24 26 31 29 24 25 27 23 22 26 23
105 90 69 69 68 66 63 63 63 58 50 52 52 51 50 49 47 46 45 43 41 39 38 41 44 41 41 43 44 43 39 33 25 30 32 34 30 31 29 28 28 31 33
111 105 99 87 83 75 70 70 71 67 63 60 59 57 56 54 52 51 50 47 44 41 43 46 46 46 47 46 45 45 44 40 37 37 32 30 30 31 27 32 34 41 44
116 114 113 108 105 98 91 84 83 82 79 74 67 64 64 60 58 57 55 51 48 45 46 50 47 47 46 41 39 40 44 47 48 42 29 28 31 29 29 37 42 50 47
116 120 113 108 105 105 99 95 92 84 80 76 73 69 67 65 62 62 56 54 50 53 50 53 51 50 46 41 38 37 30 31 36 43 53 46 41 39 41 50 53 54 50
124 122 119 111 106 104 104 98 93 89 80 66 68 68 66 65 64 60 61 55 49 49 45 45 45 41 38 38 32 29 40 39 40 41 76 55 58 47 68 65 65 60 58
125 121 121 116 109 104 103 101 97 92 86 81 73 64 65 67 65 62 57 55 56 50 49 49 45 41 42 46 43 34 34 37 52 50 59 69 66 71 77 74 72 69 66
123 121 122 121 114 108 104 102 97 90 81 74 68 70 72 68 62 61 59 60 62 57 56 54 52 53 58 59 61 51 45 54 66 60 57 70 72 77 81 82 83 79 76
130 121 121 119 114 112 105 103 99 85 62 57 73 76 75 74 61 59 59 58 62 59 63 64 61 61 63 68 70 67 61 60 69 72 73 75 74 80 91 93 93 87 82
125 125 121 119 114 108 109 99 94 84 80 63 65 64 67 63 59 64 61 61 61 69 74 73 70 70 73 73 74 76 77 76 73 78 73 79 87 92 95 98 94 96 89
117 116 124 122 115 103 107 97 93 83 78 91 73 68 71 69 63 65 71 69 76 75 70 72 76 82 75 79 82 86 85 83 80 82 86 92 93 99 98 94 98 93 87
Wind_Direction
228 222 220 219 221 224 226 229 232 235 240 251 258 264 266 273 282 295 305 312 314 312 324 335 338 343 350 356 5 8 13 21 23 23 27 35 34 32 31 31 31 31 28
234 228 224 224 225 226 227 231 237 240 247 249 256 261 264 267 275 285 292 299 304 306 306 312 315 321 329 336 344 348 354 1 3 9 13 14 18 19 20 21 22 17 13
214 234 228 225 229 229 231 239 243 245 243 250 251 257 261 264 272 280 284 291 296 296 298 303 309 315 318 323 328 333 340 344 348 351 359 3 5 6 3 1 3 2 4
217 221 237 233 234 235 229 233 239 246 248 247 257 254 254 258 264 270 275 284 289 292 293 297 302 306 309 316 321 325 329 334 335 336 337 344 351 353 351 351 347 343 340
231 223 230 241 239 239 237 232 231 236 244 248 252 262 266 268 269 272 273 278 286 292 295 297 301 306 311 314 314 316 320 323 324 323 324 326 329 331 333 329 332 336 332
229 230 224 238 244 238 242 245 240 234 236 245 249 251 261 265 269 272 276 281 283 287 293 296 299 303 307 311 313 314 314 317 319 319 320 319 321 321 314 311 313 313 312
234 232 229 234 251 250 245 247 250 251 245 242 246 250 256 265 270 274 279 283 285 287 290 295 299 302 305 306 307 310 314 314 316 315 313 311 311 310 312 307 304 308 313
242 232 233 226 239 251 251 249 249 257 262 263 260 258 256 258 263 271 279 283 286 286 289 293 298 301 302 303 307 310 311 311 314 312 312 312 312 309 305 305 306 307 309
234 235 234 238 230 236 241 251 253 252 258 266 273 273 270 266 263 263 267 273 281 285 287 289 290 296 298 299 303 307 308 315 312 317 320 319 316 314 309 309 310 311 318
235 232 240 245 235 234 236 242 250 255 257 261 265 271 277 275 273 272 272 275 278 286 289 285 289 292 293 296 301 301 302 303 302 307 310 315 315 316 317 317 316 318 320
227 232 225 234 232 235 236 242 242 250 255 257 261 265 272 275 278 283 283 280 282 287 287 287 290 293 294 297 301 303 304 303 306 304 302 303 304 305 309 313 312 314 313
213 214 230 232 228 230 238 241 240 246 249 252 257 260 264 271 277 282 286 288 292 289 290 292 291 292 294 296 298 303 305 306 307 306 303 300 299 301 307 307 309 307 308
218 217 224 226 232 230 233 238 241 240 246 249 252 256 260 264 273 277 281 285 290 294 300 300 298 296 293 295 302 301 299 303 308 304 303 306 301 305 314 311 312 311 315
217 225 234 225 233 229 239 242 241 242 243 245 250 254 258 263 268 273 278 283 286 288 295 299 296 296 298 302 303 302 298 298 299 298 295 293 295 304 310 310 316 319 321
218 226 233 228 229 238 236 238 241 241 239 243 248 253 257 262 265 270 274 279 283 287 292 293 292 296 301 298 296 297 297 297 298 299 281 282 293 303 309 306 313 322 328
215 218 212 214 220 227 233 230 230 230 239 246 252 257 260 263 267 271 274 276 279 284 288 287 287 292 292 292 297 295 299 297 296 301 290 277 286 296 297 291 301 312 319
217 213 206 212 219 222 230 230 223 226 240 247 252 257 260 264 268 271 272 274 277 279 279 281 283 284 286 288 289 287 288 292 286 282 288 273 277 291 293 300 310 314 312
221 215 219 219 224 225 228 226 230 241 249 254 255 258 260 262 265 268 269 272 275 275 278 279 281 285 286 288 295 296 294 290 291 299 282 270 269 286 293 318 305 311 315
222 224 224 228 233 233 233 234 239 244 251 255 257 260 263 264 265 267 270 270 272 273 273 276 282 286 287 289 298 295 288 287 298 299 294 271 274 280 289 305 310 314 310
222 225 226 228 232 236 236 238 241 247 253 255 257 260 263 265 266 268 271 271 272 274 282 280 275 278 278 285 288 301 296 276 278 279 291 287 285 284 289 302 310 311 313
221 226 225 227 230 235 237 237 241 244 249 254 257 258 261 262 265 264 266 266 268 271 273 271 272 271 278 279 278 277 266 262 205 214 264 273 276 279 294 294 303 305 306
222 224 228 227 229 234 238 239 239 241 247 251 253 258 262 261 261 265 267 266 267 268 261 258 261 262 263 271 279 275 263 215 231 236 234 266 262 275 282 290 295 295 296
222 223 226 228 229 232 236 239 239 241 247 257 260 260 260 260 263 262 263 261 265 265 254 254 254 264 269 271 278 278 250 233 229 244 250 257 266 270 276 284 291 295 296
222 222 225 228 229 230 233 237 238 237 246 257 259 251 253 256 257 262 262 262 260 264 253 256 257 262 263 268 275 275 265 259 251 249 256 261 263 267 272 278 285 287 288
222 222 224 228 230 231 233 234 237 235 230 246 246 240 240 242 248 254 251 250 256 252 253 255 259 264 268 267 266 268 269 266 259 255 255 260 265 267 271 273 277 281 282
220 222 224 225 228 225 232 232 234 238 244 236 245 236 232 238 245 247 243 248 251 251 249 249 255 260 262 261 260 266 266 263 263 264 264 264 267 268 270 272 274 279 282
Height
10997 10998 10998 11000 11003 11005 11008 11009 11011 11013 11016 11017 11019 11020 11021 11022 11023 11024 11025 11024 11023 11022 11021 11019 11017 11015 11013 11011 11009 11007 11005 11002 10999 10996 10992 10989 10987 10984 10980 10978 10976 10974 10972
10991 10995 10996 10996 10997 10999 11003 11005 11007 11010 11011 11014 11015 11017 11018 11020 11021 11022 11022 11023 11022 11020 11019 11018 11016 11014 11012 11011 11009 11007 11006 11003 11000 10996 10993 10991 10988 10986 10984 10982 10979 10976 10975
10980 10988 10991 10991 10991 10992 10997 11000 11002 11005 11008 11009 11012 11014 11015 11017 11018 11019 11019 11019 11020 11019 11018 11016 11014 11013 11011 11010 11008 11006 11004 11002 11000 10997 10994 10991 10989 10987 10984 10982 10979 10978 10975
10974 10978 10985 10986 10987 10989 10993 10994 10996 10998 11002 11005 11006 11009 11010 11012 11013 11015 11015 11015 11016 11017 11015 11014 11012 11012 11011 11009 11007 11005 11003 11000 10998 10996 10993 10991 10988 10987 10984 10981 10978 10975 10974
10972 10971 10975 10981 10983 10985 10987 10988 10991 10993 10994 10998 11002 11003 11005 11005 11007 11009 11011 11012 11011 11012 11013 11012 11010 11009 11008 11006 11005 11003 11001 10999 10996 10993 10991 10989 10986 10983 10982 10980 10978 10975 10970
10965 10968 10968 10973 10979 10980 10981 10983 10985 10988 10991 10992 10993 10997 10999 11002 11004 11005 11005 11007 11008 11009 11008 11008 11007 11005 11003 11002 11001 10998 10996 10994 10992 10990 10988 10985 10983 10980 10978 10975 10973 10971 10969
10957 10963 10963 10966 10973 10976 10978 10979 10980 10982 10986 10988 10989 10990 10992 10994 10997 10998 10999 11001 11002 11003 11004 11003 11002 11002 11000 10998 10996 10994 10992 10990 10988 10986 10983 10980 10979 10976 10974 10970 10968 10965 10963
10944 10951 10954 10954 10960 10970 10973 10974 10975 10978 10979 10982 10985 10986 10988 10989 10991 10993 10994 10994 10996 10997 10998 10998 10997 10997 10996 10994 10993 10991 10989 10986 10984 10981 10978 10975 10974 10971 10968 10965 10963 10961 10958
10930 10937 10941 10947 10949 10955 10962 10968 10970 10971 10973 10975 10978 10982 10983 10985 10985 10986 10988 10988 10989 10990 10992 10992 10992 10992 10991 10990 10988 10986 10984 10982 10979 10976 10974 10971 10969 10967 10963 10960 10957 10954 10952
10917 10925 10933 10937 10944 10946 10951 10958 10963 10965 10966 10970 10972 10974 10978 10980 10981 10981 10982 10982 10982 10983 10985 10985 10985 10986 10986 10984 10983 10981 10979 10978 10975 10973 10971 10969 10966 10964 10961 10957 10954 10950 10947
10908 10916 10921 10926 10930 10935 10942 10948 10953 10957 10960 10961 10965 10968 10970 10973 10975 10976 10977 10977 10976 10977 10979 10980 10980 10980 10979 10977 10976 10974 10973 10971 10969 10967 10966 10964 10962 10960 10958 10955 10952 10948 10945
10894 10900 10908 10910 10915 10924 10930 10935 10941 10947 10951 10954 10957 10961 10963 10966 10969 10970 10971 10971 10971 10972 10974 10975 10974 10972 10971 10970 10968 10967 10965 10963 10961 10960 10959 10957 10955 10953 10952 10949 10947 10944 10941
10876 10886 10890 10897 10907 10909 10913 10920 10928 10935 10941 10944 10949 10952 10955 10960 10962 10963 10965 10965 10964 10965 10966 10967 10967 10965 10963 10961 10961 10959 10956 10954 10952 10950 10949 10948 10947 10945 10945 10942 10940 10937 10934
10859 10864 10873 10884 10893 10898 10902 10908 10915 10922 10929 10933 10938 10943 10948 10952 10953 10955 10958 10959 10958 10958 10958 10959 10959 10956 10956 10955 10952 10950 10947 10945 10943 10943 10942 10940 10937 10936 10936 10934 10933 10931 10927
10841 10848 10857 10867 10876 10880 10889 10896 10902 10909 10917 10921 10927 10934 10939 10941 10943 10947 10950 10951 10950 10950 10950 10950 10949 10947 10946 10943 10940 10940 10941 10939 10937 10934 10929 10928 10929 10928 10926 10926 10926 10925 10922
10825 10836 10840 10845 10855 10867 10871 10878 10887 10898 10906 10910 10916 10923 10928 10930 10934 10937 10940 10940 10941 10942 10942 10939 10937 10935 10934 10933 10934 10932 10931 10930 10927 10926 10924 10924 10920 10920 10920 10918 10917 10918 10916
10804 10817 10817 10830 10840 10851 10859 10867 10874 10884 10892 10899 10906 10912 10917 10920 10923 10926 10928 10929 10931 10932 10931 10928 10925 10924 10923 10922 10922 10920 10920 10919 10916 10916 10915 10913 10915 10912 10909 10911 10909 10908 10909
10783 10796 10802 10812 10824 10838 10848 10853 10859 10870 10881 10889 10896 10902 10905 10908 10911 10913 10916 10917 10919 10921 10920 10916 10914 10913 10912 10912 10912 10911 10910 10908 10904 10901 10899 10900 10901 10902 10903 10902 10901 10898 10897
10764 10775 10789 10800 10810 10822 10834 10841 10849 10859 10868 10878 10884 10889 10893 10897 10899 10901 10903 10906 10906 10908 10907 10902 10901 10900 10901 10903 10902 10900 10898 10896 10896 10895 10891 10894 10893 10890 10892 10892 10891 10889 10887
10744 10753 10771 10785 10796 10804 10817 10828 10838 10846 10856 10864 10871 10876 10878 10883 10884 10884 10887 10891 10894 10891 10892 10889 10890 10888 10890 10893 10893 10895 10892 10879 10890 10886 10893 10889 10886 10881 10876 10877 10876 10875 10873
10726 10735 10754 10767 10778 10787 10800 10814 10825 10835 10841 10850 10857 10861 10865 10865 10866 10870 10870 10875 10877 10878 10879 10874 10877 10878 10880 10879 10884 10886 10874 10866 10875 10898 10889 10881 10875 10867 10862 10862 10861 10861 10861
10706 10726 10737 10752 10763 10775 10783 10795 10809 10821 10830 10838 10841 10846 10847 10848 10852 10854 10857 10859 10860 10862 10861 10861 10862 10865 10864 10866 10869 10876 10869 10864 10863 10882 10868 10867 10861 10854 10849 10848 10844 10849 10847
10691 10709 10720 10733 10747 10758 10767 10778 10795 10809 10822 10827 10825 10828 10828 10830 10834 10839 10845 10848 10845 10843 10846 10847 10849 10848 10847 10849 10853 10860 10864 10864 10864 10863 10858 10853 10847 10839 10834 10826 10827 10832 10833
10665 10688 10700 10716 10728 10740 10752 10763 10779 10797 10805 10793 10796 10800 10807 10812 10818 10821 10825 10826 10826 10824 10824 10828 10832 10833 10832 10831 10832 10837 10843 10844 10843 10839 10836 10830 10826 10819 10812 10813 10815 10813 10813
10648 10669 10682 10692 10709 10723 10734 10748 10760 10773 10777 10777 10780 10779 10786 10793 10797 10801 10802 10806 10804 10805 10804 10806 10810 10810 10811 10812 10812 10812 10815 10816 10818 10814 10809 10805 10802 10801 10800 10798 10795 10794 10793
10630 10645 10655 10672 10693 10709 10709 10731 10746 10749 10745 10757 10760 10763 10764 10770 10776 10777 10778 10779 10781 10785 10786 10787 10789 10789 10789 10790 10791 10790 10793 10793 10792 10792 10792 10791 10788 10786 10782 10779 10777 10775 10770